| time (UTC) | temp F | wind direction | speed MPH | gust MPH | rain 1hr in | rain 24hr in | rain mn in | humidity % | barometer mb |
| 20260504184538 | 52 | 323 | 4.0 | 10.0 | 0.00 | 0.10 | 0.10 | 83 | 1007.3 |
| 20260504183038 | 53 | 5 | 1.0 | 5.0 | 0.00 | 0.10 | 0.10 | 81 | 1007.3 |
| 20260504181538 | 52 | 340 | 3.0 | 6.0 | 0.00 | 0.10 | 0.10 | 81 | 1007.3 |
| 20260504180037 | 49 | 350 | 3.0 | 5.0 | 0.00 | 0.10 | 0.10 | 88 | 1007.5 |
| 20260504174538 | 47 | 355 | 0.0 | 2.0 | 0.00 | 0.10 | 0.10 | 91 | 1007.7 |
| 20260504173039 | 46 | 59 | 0.0 | 1.0 | 0.00 | 0.10 | 0.10 | 94 | 1007.8 |
| 20260504171537 | 46 | 59 | 0.0 | 3.0 | 0.01 | 0.10 | 0.10 | 94 | 1007.8 |
| 20260504081535 | 32 | 184 | 1.0 | 3.0 | 0.00 | 0.08 | 0.00 | 90 | 1008.0 |
| 20260504050013 | 28 | 139 | 1.0 | 5.0 | 0.00 | 0.13 | 0.00 | 91 | 1008.3 |
| 20260504044514 | 28 | 119 | 2.0 | 4.0 | 0.00 | 0.18 | 0.00 | 91 | 1008.2 |
| 20260504043012 | 29 | 134 | 0.0 | 3.0 | 0.00 | 0.18 | 0.00 | 91 | 1008.3 |
| 20260504041520 | 29 | 134 | 0.0 | 3.0 | 0.00 | 0.18 | 0.00 | 90 | 1008.3 |
| 20260504040003 | 29 | 140 | 2.0 | 4.0 | 0.00 | 0.21 | 0.18 | 90 | 1008.0 |
| 20260504034625 | 29 | 123 | 1.0 | 3.0 | 0.00 | 0.21 | 0.18 | 90 | 1007.9 |
| 20260504033059 | 29 | 113 | 0.0 | 3.0 | 0.00 | 0.21 | 0.18 | 89 | 1007.9 |
| 20260504031556 | 30 | 104 | 0.0 | 2.0 | 0.00 | 0.21 | 0.18 | 89 | 1008.0 |
| 20260504030054 | 30 | 104 | 1.0 | 4.0 | 0.00 | 0.21 | 0.18 | 88 | 1008.0 |
| 20260504024554 | 31 | 100 | 2.0 | 4.0 | 0.00 | 0.22 | 0.18 | 87 | 1008.0 |
| 20260504023050 | 32 | 100 | 0.0 | 3.0 | 0.00 | 0.22 | 0.18 | 86 | 1008.0 |
| 20260504021552 | 32 | 100 | 1.0 | 4.0 | 0.00 | 0.22 | 0.18 | 85 | 1008.1 |
| 20260504020045 | 34 | 342 | 1.0 | 9.0 | 0.00 | 0.22 | 0.18 | 82 | 1008.1 |
| 20260504014544 | 33 | 220 | 1.0 | 4.0 | 0.00 | 0.23 | 0.18 | 84 | 1007.9 |
| 20260504013055 | 34 | 165 | 0.0 | 2.0 | 0.00 | 0.23 | 0.18 | 81 | 1007.9 |
| 20260504011542 | 36 | 202 | 2.0 | 4.0 | 0.00 | 0.23 | 0.18 | 77 | 1008.0 |
| 20260504010043 | 37 | 267 | 1.0 | 3.0 | 0.00 | 0.23 | 0.18 | 73 | 1008.0 |
| 20260504004540 | 39 | 274 | 2.0 | 5.0 | 0.00 | 0.23 | 0.18 | 68 | 1007.8 |
| 20260504003039 | 40 | 265 | 3.0 | 9.0 | 0.00 | 0.23 | 0.18 | 66 | 1007.8 |
| 20260504001543 | 40 | 232 | 3.0 | 11.0 | 0.00 | 0.23 | 0.18 | 65 | 1007.5 |
| 20260504000040 | 41 | 281 | 3.0 | 13.0 | 0.00 | 0.23 | 0.18 | 64 | 1007.3 |
| 20260503234538 | 41 | 257 | 5.0 | 10.0 | 0.00 | 0.23 | 0.18 | 64 | 1007.4 |
| 20260503233038 | 41 | 289 | 5.0 | 9.0 | 0.00 | 0.23 | 0.18 | 67 | 1007.3 |
| 20260503231538 | 41 | 321 | 4.0 | 9.0 | 0.00 | 0.23 | 0.18 | 67 | 1007.6 |
| 20260503230041 | 41 | 311 | 3.0 | 10.0 | 0.00 | 0.23 | 0.18 | 67 | 1007.3 |
| 20260503224536 | 41 | 324 | 7.0 | 11.0 | 0.00 | 0.23 | 0.18 | 67 | 1007.5 |
| 20260503223035 | 41 | 338 | 2.0 | 8.0 | 0.00 | 0.23 | 0.18 | 69 | 1007.3 |
| 20260503221535 | 41 | 321 | 4.0 | 10.0 | 0.00 | 0.23 | 0.18 | 67 | 1007.2 |
| 20260503220037 | 41 | 341 | 5.0 | 11.0 | 0.00 | 0.23 | 0.18 | 66 | 1007.0 |
| 20260503214540 | 42 | 342 | 6.0 | 13.0 | 0.00 | 0.23 | 0.18 | 65 | 1007.1 |
| 20260503213037 | 42 | 294 | 9.0 | 18.0 | 0.00 | 0.23 | 0.18 | 63 | 1007.0 |
| 20260503211533 | 42 | 329 | 5.0 | 16.0 | 0.00 | 0.23 | 0.18 | 61 | 1007.1 |
| 20260503210033 | 42 | 329 | 9.0 | 17.0 | 0.00 | 0.23 | 0.18 | 61 | 1006.9 |
| 20260503204532 | 41 | 266 | 8.0 | 16.0 | 0.00 | 0.26 | 0.18 | 65 | 1007.0 |
| 20260503203036 | 42 | 306 | 10.0 | 21.0 | 0.00 | 0.26 | 0.18 | 66 | 1006.8 |
| 20260503201530 | 42 | 322 | 4.0 | 15.0 | 0.00 | 0.26 | 0.18 | 63 | 1006.8 |
| 20260503200030 | 43 | 239 | 8.0 | 15.0 | 0.00 | 0.26 | 0.18 | 62 | 1006.8 |
| 20260503194528 | 42 | 281 | 6.0 | 10.0 | 0.00 | 0.33 | 0.18 | 66 | 1006.8 |
| 20260503193041 | 42 | 329 | 6.0 | 12.0 | 0.00 | 0.33 | 0.18 | 68 | 1006.9 |
| 20260503191558 | 42 | 306 | 8.0 | 21.0 | 0.00 | 0.33 | 0.18 | 66 | 1006.9 |
| 20260503190034 | 43 | 329 | 5.0 | 16.0 | 0.00 | 0.33 | 0.18 | 66 | 1006.8 |